"Pseudo-MPEC" for P10Of77

Created 2019 Jun 15 19:09:07 UT using Find_Orb

Click here for an explanation of pseudo-MPECs

 
 Astrometry: 
     P10Of77  C2019 05 28-$m]RAstrometry:6jW8kj24S+]3l`2:DWQ]MOFZ-:r9..^?80DJF51
     P10Of77  C2019 05 28yQ06dVvvJ@-U#3(,ZcmN5`\wDVQ\fua?LKU6'+2R%t-(-6hAS5oBF51
     P10Of77  C2019 05 28v,?@redacted;bpW(krqC1aJ=MVBGd%UTGPa])3`HSrd*c\`4%LuF51
     P10Of77 KC2019 05 29*C`?J$xY2F/s]cVpI$#KPB09$J'^vVB?Y(_)a]s]KG@5#j8\nd26291
     P10Of77 KC2019 05 29Nnxa,uNnQ1SZrkvEN!FIj$9):aGwu`FMH,@5qqFJ+ro[qD\m'v,0291
     P10Of77 KC2019 05 29jn1pE`WE3YR6Sga$ge/9[j0%(L-$2qnZ(?ZhP%Vc1FR-@sr)2-sC291
     P10Of77 ^C2019 06 05.42507116 48 30.050+30 03 49.64   ~65Ab 21.94GVNEOCP568
     P10Of77 ^C2019 06 05.42602416 48 29.968+30 03 48.96   ~65Ab 21.81GVNEOCP568
     P10Of77 ^C2019 06 05.42698316 48 29.886+30 03 48.29   ~65Ab 21.97GVNEOCP568
     P10Of77  C2019 06 08fSK8a*%XR_aK?)!y9dd_Z=FT6s]I0FmdK_KUd]b$x3C\ivuSa5hXF51
     P10Of77  C2019 06 085BH.Kijq6TwuY,:qno\;QKl'XSFeQig:I9)9dsH;n[HbRpRvS#h4F51
     P10Of77  C2019 06 08\uP\`\clickK'vNtYB_Rj%cXsC4K?A)-V?\,!vB'$rUxQQ7]Al^!F51
     P10Of77  C2019 06 11nG3gDGmdhvKDo.+p*'QbaaQ8x54jM59NHros\7Ib6puiTt=[$.tVF52
     P10Of77  C2019 06 11w.!Jw:xEtpnH-_qouj?p3sM-jOin7=%4%8tj!naIHhere.hq^X6.F52
     P10Of77  C2019 06 11Ec[RTeul'kqa]M[N(*iQ7:h.xx,EaBx;-Mc@y.k;lsPtUforZca[F52
     P10Of77  C2019 06 11T!IbSJ:_I!explanation[!qBOi,Ihnn):AZ4wnw^OQ_Sm8WaQcgF52

Station data:
(291) LPL/Spacewatch II  (N31.961669 W111.599905)  US/Arizona.  Observers J.
   V. Scotti, R. S. McMillan. 1.8-m f/2.7 reflector + CCD.
(568) Mauna Kea  (N19.826116 W155.472200)  US/Hawaii.
(F51) Pan-STARRS 1, Haleakala  (N20.707235 W156.255910)  US/Hawaii.
   Observers N. Primak, A. Schultz, S. Watters, J. Thiel, T. Goggia. Measurer
   PS1 Science Consortium. 1.8-m Ritchey-Chrétien + CCD.
(F52) Pan-STARRS 2, Haleakala  (N20.707384 W156.255910)  US/Hawaii. 1.8-m
   Ritchey-Chrétien + CCD.

Orbital elements:  P10Of77
   Perihelion 2019 Oct 23.431119 +/- 0.0606 TT = 10:20:48 (JD 2458779.931119)
Epoch 2019 Jun 11.0 TT = JDT 2458645.5   Earth MOID: 0.6473   AutoNEOCP
M 305.79859440 +/- 0.026            (J2000 ecliptic)
n   0.40319091 +/- 0.000253         Peri.  187.43571 +/- 0.039
a   1.81466122 +/- 0.000761         Node   124.47492 +/- 0.024
e   0.0842556 +/- 0.000427          Incl.   29.75812 +/- 0.014
P   2.44/892.86d           H 20.3   G  0.15   U  7.2  
q 1.66176575 +/- 0.000319    Q 1.96755669 +/- 0.00156
From 16 observations 2019 May 28-June 11; mean residual 0".17
Residuals in arcseconds: 
190528 F51  .01+  .14-    190605 568  .04+  .00     190611 F52  .19-  .19+    
190528 F51  .02+  .16-    190605 568  .04+  .00     190611 F52  .32+  .17+    
190528 F51  .02-  .16-    190605 568  .05+  .02+    190611 F52  .04-  .25-    
190529 291  .49-  .33+    190608 F51  .03-  .06-    190611 F52  .06-  .03+    
190529 291  .15+  .09+    190608 F51  .07-  .05+    
190529 291  .32+  .09+    190608 F51  .04-  .19-    

Ephemerides (geocentric):
Date (UTC) HH   RA              Dec         delta   r     elong  mag " sig PA
---- -- -- --  -------------   -----------  ------ ------ -----  --- ---- ---
2019 06 15 19  16 34 47.897   +27 19 08.90  .91339 1.7298 127.4 22.5 .599 141
2019 06 15 20  16 34 44.791   +27 18 19.52  .91337 1.7298 127.4 22.5 .605 141
2019 06 15 21  16 34 41.688   +27 17 30.06  .91335 1.7297 127.4 22.5 .610 140
2019 06 15 22  16 34 38.587   +27 16 40.53  .91333 1.7297 127.4 22.5 .616 140
2019 06 15 23  16 34 35.488   +27 15 50.92  .91331 1.7296 127.4 22.5 .621 140
2019 06 16 00  16 34 32.391   +27 15 01.24  .91330 1.7296 127.3 22.5 .627 140
2019 06 16 01  16 34 29.297   +27 14 11.49  .91328 1.7296 127.3 22.5 .632 140
2019 06 16 02  16 34 26.205   +27 13 21.66  .91326 1.7295 127.3 22.5 .638 140
2019 06 16 03  16 34 23.115   +27 12 31.76  .91324 1.7295 127.3 22.5 .643 140
2019 06 16 04  16 34 20.028   +27 11 41.78  .91323 1.7294 127.3 22.5 .649 140
2019 06 16 05  16 34 16.943   +27 10 51.74  .91321 1.7294 127.3 22.5 .654 140
2019 06 16 06  16 34 13.860   +27 10 01.61  .91319 1.7294 127.3 22.5 .660 140
2019 06 16 07  16 34 10.779   +27 09 11.42  .91318 1.7293 127.3 22.5 .666 140
2019 06 16 08  16 34 07.701   +27 08 21.15  .91316 1.7293 127.3 22.5 .671 140
2019 06 16 09  16 34 04.625   +27 07 30.81  .91314 1.7293 127.3 22.5 .677 140
2019 06 16 10  16 34 01.551   +27 06 40.40  .91313 1.7292 127.3 22.5 .683 140
2019 06 16 11  16 33 58.480   +27 05 49.91  .91311 1.7292 127.3 22.5 .688 140
2019 06 16 12  16 33 55.411   +27 04 59.35  .91310 1.7291 127.3 22.5 .694 140
2019 06 16 13  16 33 52.345   +27 04 08.71  .91308 1.7291 127.3 22.5 .700 140
2019 06 16 14  16 33 49.280   +27 03 18.01  .91307 1.7291 127.3 22.5 .706 140
2019 06 16 15  16 33 46.219   +27 02 27.23  .91305 1.7290 127.3 22.5 .711 140
2019 06 16 16  16 33 43.159   +27 01 36.38  .91304 1.7290 127.3 22.5 .717 140
2019 06 16 17  16 33 40.102   +27 00 45.45  .91303 1.7289 127.3 22.5 .723 140
2019 06 16 18  16 33 37.047   +26 59 54.45  .91301 1.7289 127.3 22.5 .729 140
2019 06 16 19  16 33 33.995   +26 59 03.38  .91300 1.7289 127.3 22.5 .735 140
2019 06 16 20  16 33 30.945   +26 58 12.24  .91299 1.7288 127.3 22.5 .741 139
2019 06 16 21  16 33 27.897   +26 57 21.02  .91297 1.7288 127.3 22.5 .746 139
2019 06 16 22  16 33 24.852   +26 56 29.73  .91296 1.7287 127.3 22.5 .752 139
2019 06 16 23  16 33 21.810   +26 55 38.37  .91295 1.7287 127.3 22.5 .758 139
2019 06 17 00  16 33 18.769   +26 54 46.94  .91294 1.7287 127.3 22.5 .764 139
2019 06 17 01  16 33 15.731   +26 53 55.43  .91292 1.7286 127.3 22.5 .770 139
2019 06 17 02  16 33 12.696   +26 53 03.85  .91291 1.7286 127.2 22.5 .776 139
2019 06 17 03  16 33 09.663   +26 52 12.20  .91290 1.7286 127.2 22.5 .782 139
2019 06 17 04  16 33 06.632   +26 51 20.48  .91289 1.7285 127.2 22.5 .788 139
2019 06 17 05  16 33 03.604   +26 50 28.69  .91288 1.7285 127.2 22.5 .794 139
2019 06 17 06  16 33 00.579   +26 49 36.82  .91287 1.7284 127.2 22.5 .800 139
2019 06 17 07  16 32 57.556   +26 48 44.88  .91286 1.7284 127.2 22.5 .806 139
2019 06 17 08  16 32 54.535   +26 47 52.87  .91285 1.7284 127.2 22.5 .812 139
2019 06 17 09  16 32 51.517   +26 47 00.79  .91284 1.7283 127.2 22.5 .819 139
2019 06 17 10  16 32 48.501   +26 46 08.63  .91283 1.7283 127.2 22.5 .825 139
2019 06 17 11  16 32 45.488   +26 45 16.41  .91282 1.7282 127.2 22.5 .831 139
2019 06 17 12  16 32 42.477   +26 44 24.11  .91281 1.7282 127.2 22.5 .837 139
2019 06 17 13  16 32 39.469   +26 43 31.74  .91280 1.7282 127.2 22.5 .843 139
2019 06 17 14  16 32 36.464   +26 42 39.30  .91279 1.7281 127.2 22.5 .849 139
2019 06 17 15  16 32 33.460   +26 41 46.78  .91278 1.7281 127.2 22.5 .855 139
2019 06 17 16  16 32 30.460   +26 40 54.20  .91277 1.7280 127.2 22.5 .862 139
2019 06 17 17  16 32 27.462   +26 40 01.54  .91276 1.7280 127.2 22.5 .868 139
2019 06 17 18  16 32 24.466   +26 39 08.81  .91276 1.7280 127.2 22.5 .874 139